When you browse on this site, cookies collect data to enhance your experience and personalize the content and advertising you see.
Visit our Privacy Policy to learn more. By continuing to use the site, you agree to this use of cookies and data.
  • In Deutschland
  • Länderverzeichnis
  • Für 7 Tage
  • Wassertemperatur
  • Satellitenkarten
  • Wetterkarte
  • Widgets
  • user-avatar
    Anmelden

    Stündliche Wetter Baunt

    Heute, 20 November, Dienstag

    Zeit Temperatur Niederschläge Wind Luftdruck Luftfeuchtigkeit
    00:00 -25°C° 0 mm 1 m/S 659 mmHg 84%
    01:00 -25°C° 0 mm 1 m/S 659 mmHg 85%
    02:00 -25°C° 0 mm 1 m/S 658 mmHg 85%
    03:00 -25°C° 0 mm 1 m/S 658 mmHg 86%
    04:00 -24°C° 0 mm 1 m/S 658 mmHg 86%
    05:00 -24°C° 0 mm 1 m/S 658 mmHg 87%
    06:00 -24°C° 0 mm 1 m/S 658 mmHg 88%
    07:00 -24°C° 0 mm 1 m/S 658 mmHg 89%
    08:00 -23°C° 0 mm 1 m/S 657 mmHg 90%
    09:00 -22°C° 0 mm 1 m/S 657 mmHg 89%
    10:00 -21°C° 0 mm 1 m/S 658 mmHg 87%
    11:00 -20°C° 0 mm 0 m/S 658 mmHg 86%
    12:00 -19°C° 0 mm 1 m/S 658 mmHg 85%
    13:00 -19°C° 0 mm 1 m/S 658 mmHg 84%
    14:00 -18°C° 0 mm 1 m/S 658 mmHg 84%
    15:00 -19°C° 0 mm 1 m/S 658 mmHg 86%
    16:00 -20°C° 0 mm 1 m/S 658 mmHg 89%
    17:00 -21°C° 0 mm 1 m/S 658 mmHg 91%
    18:00 -22°C° 0 mm 1 m/S 658 mmHg 92%
    19:00 -25°C° 0 mm 2 m/S 658 mmHg 92%
    20:00 -26°C° 0 mm 2 m/S 659 mmHg 92%
    21:00 -26°C° 0 mm 2 m/S 659 mmHg 92%
    22:00 -27°C° 0 mm 2 m/S 659 mmHg 92%
    23:00 -28°C° 0 mm 2 m/S 659 mmHg 92%

    Morgen, 21 November, Mittwoch

    Zeit Temperatur Niederschläge Wind Luftdruck Luftfeuchtigkeit
    00:00 -28°C° 0 mm 2 m/S 660 mmHg 92%
    01:00 -29°C° 0 mm 2 m/S 660 mmHg 92%
    02:00 -29°C° 0 mm 2 m/S 660 mmHg 91%
    03:00 -30°C° 0 mm 2 m/S 660 mmHg 91%
    04:00 -30°C° 0 mm 2 m/S 660 mmHg 90%
    05:00 -30°C° 0 mm 2 m/S 660 mmHg 90%
    06:00 -30°C° 0 mm 2 m/S 660 mmHg 89%
    07:00 -30°C° 0 mm 2 m/S 660 mmHg 88%
    08:00 -29°C° 0 mm 1 m/S 661 mmHg 88%
    09:00 -27°C° 0 mm 1 m/S 661 mmHg 85%
    10:00 -25°C° 0 mm 1 m/S 662 mmHg 82%
    11:00 -23°C° 0 mm 1 m/S 662 mmHg 79%
    12:00 -22°C° 0 mm 1 m/S 662 mmHg 78%
    13:00 -22°C° 0 mm 1 m/S 662 mmHg 77%
    14:00 -21°C° 0 mm 1 m/S 662 mmHg 76%
    15:00 -22°C° 0 mm 1 m/S 662 mmHg 78%
    16:00 -24°C° 0 mm 1 m/S 662 mmHg 80%
    17:00 -25°C° 0 mm 1 m/S 662 mmHg 83%
    18:00 -25°C° 0 mm 1 m/S 662 mmHg 81%
    19:00 -25°C° 0 mm 1 m/S 662 mmHg 80%
    20:00 -25°C° 0 mm 1 m/S 662 mmHg 78%
    21:00 -25°C° 0 mm 1 m/S 662 mmHg 77%
    22:00 -25°C° 0 mm 1 m/S 662 mmHg 76%
    23:00 -24°C° 0 mm 1 m/S 662 mmHg 75%

    übermorgen, 22 November, Donnerstag

    Zeit Temperatur Niederschläge Wind Luftdruck Luftfeuchtigkeit
    00:00 -24°C° 0 mm 1 m/S 662 mmHg 75%
    01:00 -24°C° 0 mm 1 m/S 662 mmHg 76%
    02:00 -23°C° 0 mm 1 m/S 662 mmHg 76%
    03:00 -23°C° 0 mm 1 m/S 661 mmHg 77%
    04:00 -22°C° 0 mm 1 m/S 661 mmHg 78%
    05:00 -22°C° 0 mm 1 m/S 661 mmHg 79%
    06:00 -22°C° 0 mm 1 m/S 661 mmHg 80%
    07:00 -22°C° 0 mm 1 m/S 660 mmHg 81%
    08:00 -22°C° 0 mm 1 m/S 660 mmHg 82%
    09:00 -20°C° 0 mm 1 m/S 660 mmHg 81%
    10:00 -19°C° 0 mm 1 m/S 660 mmHg 80%
    11:00 -17°C° 0 mm 1 m/S 661 mmHg 80%
    12:00 -16°C° 0 mm 1 m/S 660 mmHg 81%
    13:00 -16°C° 0 mm 1 m/S 660 mmHg 81%
    14:00 -15°C° 0 mm 1 m/S 660 mmHg 82%
    15:00 -16°C° 0 mm 1 m/S 659 mmHg 84%
    16:00 -17°C° 0 mm 1 m/S 659 mmHg 86%
    17:00 -18°C° 0 mm 1 m/S 659 mmHg 87%
    18:00 -18°C° 0 mm 1 m/S 659 mmHg 88%
    19:00 -18°C° 0 mm 1 m/S 659 mmHg 88%
    20:00 -18°C° 0 mm 1 m/S 659 mmHg 88%
    21:00 -18°C° 0 mm 1 m/S 659 mmHg 88%
    22:00 -18°C° 0 mm 1 m/S 659 mmHg 88%
    23:00 -18°C° 0 mm 1 m/S 659 mmHg 88%

    23 November, Freitag

    Zeit Temperatur Niederschläge Wind Luftdruck Luftfeuchtigkeit
    00:00 -17°C° 0 mm 1 m/S 659 mmHg 88%
    01:00 -17°C° 0 mm 1 m/S 658 mmHg 89%
    02:00 -17°C° 0 mm 1 m/S 658 mmHg 89%
    03:00 -17°C° 0 mm 1 m/S 658 mmHg 89%
    04:00 -17°C° 0 mm 1 m/S 658 mmHg 89%
    05:00 -17°C° 0 mm 1 m/S 658 mmHg 89%
    06:00 -17°C° 0 mm 1 m/S 658 mmHg 89%
    07:00 -17°C° 0 mm 1 m/S 658 mmHg 88%
    08:00 -16°C° 0 mm 1 m/S 658 mmHg 88%
    09:00 -15°C° 0 mm 1 m/S 659 mmHg 87%
    10:00 -14°C° 0 mm 1 m/S 659 mmHg 86%
    11:00 -13°C° 0 mm 1 m/S 659 mmHg 85%
    12:00 -12°C° 0 mm 1 m/S 659 mmHg 85%
    13:00 -11°C° 0 mm 1 m/S 659 mmHg 85%
    14:00 -11°C° 0 mm 1 m/S 659 mmHg 85%
    15:00 -12°C° 0 mm 1 m/S 659 mmHg 86%
    16:00 -13°C° 0 mm 1 m/S 659 mmHg 86%
    17:00 -16°C° 0 mm 2 m/S 658 mmHg 87%
    18:00 -17°C° 0 mm 2 m/S 658 mmHg 87%
    19:00 -15°C° 0 mm 1 m/S 659 mmHg 87%
    20:00 -15°C° 0 mm 1 m/S 659 mmHg 88%
    21:00 -16°C° 0 mm 1 m/S 659 mmHg 88%
    22:00 -16°C° 0 mm 1 m/S 659 mmHg 88%
    23:00 -16°C° 0 mm 1 m/S 659 mmHg 88%

    24 November, Samstag

    Zeit Temperatur Niederschläge Wind Luftdruck Luftfeuchtigkeit
    00:00 -16°C° 0 mm 1 m/S 659 mmHg 87%
    01:00 -16°C° 0 mm 1 m/S 659 mmHg 87%
    02:00 -16°C° 0 mm 1 m/S 658 mmHg 87%
    03:00 -16°C° 0 mm 1 m/S 658 mmHg 87%
    04:00 -16°C° 0 mm 1 m/S 658 mmHg 86%
    05:00 -16°C° 0 mm 1 m/S 658 mmHg 86%
    06:00 -16°C° 0 mm 1 m/S 659 mmHg 85%
    07:00 -16°C° 0 mm 1 m/S 659 mmHg 85%
    08:00 -15°C° 0 mm 1 m/S 659 mmHg 84%
    09:00 -14°C° 0 mm 1 m/S 659 mmHg 83%
    10:00 -13°C° 0 mm 1 m/S 659 mmHg 83%
    11:00 -12°C° 0 mm 1 m/S 659 mmHg 82%
    12:00 -11°C° 0 mm 1 m/S 659 mmHg 82%
    13:00 -13°C° 0 mm 2 m/S 659 mmHg 83%
    14:00 -12°C° 0 mm 2 m/S 658 mmHg 84%
    15:00 -13°C° 0 mm 2 m/S 658 mmHg 84%
    16:00 -14°C° 0 mm 2 m/S 658 mmHg 85%
    17:00 -15°C° 0 mm 2 m/S 657 mmHg 86%
    18:00 -13°C° 0 mm 1 m/S 657 mmHg 86%
    19:00 -13°C° 0 mm 1 m/S 657 mmHg 87%
    20:00 -13°C° 0 mm 1 m/S 657 mmHg 87%
    21:00 -13°C° 0.1 mm 1 m/S 657 mmHg 88%
    22:00 -12°C° 0.1 mm 1 m/S 656 mmHg 88%
    23:00 -12°C° 0.1 mm 1 m/S 656 mmHg 89%

    25 November, Sonntag

    Zeit Temperatur Niederschläge Wind Luftdruck Luftfeuchtigkeit
    00:00 -12°C° 0 mm 1 m/S 655 mmHg 90%
    01:00 -13°C° 0 mm 1 m/S 655 mmHg 91%
    02:00 -14°C° 0 mm 1 m/S 654 mmHg 91%
    03:00 -14°C° 0 mm 1 m/S 653 mmHg 92%
    04:00 -14°C° 0 mm 1 m/S 653 mmHg 92%
    05:00 -15°C° 0 mm 1 m/S 652 mmHg 92%
    06:00 -15°C° 0 mm 1 m/S 652 mmHg 92%
    07:00 -15°C° 0 mm 1 m/S 652 mmHg 92%
    08:00 -15°C° 0 mm 1 m/S 651 mmHg 91%
    09:00 -14°C° 0 mm 1 m/S 651 mmHg 90%
    10:00 -13°C° 0 mm 1 m/S 651 mmHg 89%
    11:00 -13°C° 0 mm 2 m/S 651 mmHg 89%
    12:00 -13°C° 0 mm 2 m/S 650 mmHg 89%
    13:00 -13°C° 0 mm 2 m/S 649 mmHg 89%
    14:00 -12°C° 0 mm 2 m/S 648 mmHg 90%
    15:00 -13°C° 0.1 mm 2 m/S 648 mmHg 91%
    16:00 -13°C° 0.1 mm 2 m/S 647 mmHg 92%
    17:00 -14°C° 0.1 mm 2 m/S 647 mmHg 93%
    18:00 -14°C° 0.2 mm 2 m/S 647 mmHg 94%
    19:00 -12°C° 0.2 mm 1 m/S 646 mmHg 94%
    20:00 -12°C° 0.2 mm 1 m/S 646 mmHg 94%
    21:00 -12°C° 0.3 mm 1 m/S 646 mmHg 94%
    22:00 -12°C° 0.3 mm 1 m/S 646 mmHg 95%
    23:00 -12°C° 0.3 mm 1 m/S 647 mmHg 95%
    Mehr zeigen